www.pogodaiklimat.ru

Погода и климат >> Архив погоды >> Индонезия >> Medan Polonia Int Airport


ПОГОДА в Medan Polonia Int Airport

  • Прогноз погоды в Medan Polonia Int Airport
  • Монитор погоды в Medan Polonia Int Airport
  • Климат города

АРХИВ ПОГОДЫ в Medan Polonia Int Airport

Время (UTC), дата Ветер
(напр.,м/с)
 
Видим.   Явления Облачность Т
(С)
Тd
(С)
f
(%)
Тe
(С)
Тes
(С)
Комфортность P
(гПа)
Po
(гПа)
Тmin
(С)
Tmax
(С)
R
(мм)
R24
(мм)
S
(см)
09 12.11 С 4 10 км 8/3 540 м
[Sc Ac trans Ci fib]
+29.8 +25.8 79 +44 +46 опасность
перегрева
1005.4 1004.6
12 12.11 С 3 10 км 8/3 540 м
[Sc Ac trans Ci fib]
+27.1 +25.1 89 +39 +39 очень
душно
1007.6 1006.8 +30.4
15 12.11 З 6 8000 м гроза, ливневой дождь 10/6 500 м
[Cb cap Ac As]
+24.2 +24.1 99 +33 +33 очень
душно
1010.9 1010.1 3
18 12.11 ЮВ 2 3000 м слабый дождь {гроза} 10/6
[Cb cap Ac As]
+23.4 +23.0 98 +33 +33 очень
душно
1009.6 1008.8 22
21 12.11 ЮЗ 2 7000 м {дождь} 9/5 500 м
[Sc Ac As Cs]
+23.4 +23.0 98 +33 +33 очень
душно
1007.4 1006.6 0.2
00 13.11 штиль 0 4000 м мгла 9/4 500 м
[Sc Ac As Cs]
+23.9 +23.0 95 +32 +32 очень
душно
1008.9 1008.1 +23.3 25
03 13.11 штиль 0 10 км 9/4 540 м
[Sc Ac As Cs]
+28.9 +24.5 77 +41 +46 опасность
перегрева
1009.6 1008.8
06 13.11 С 5 10 км 9/4 500 м
[Sc Ac As Cs]
+30.0 +26.6 82 +46 +50 опасность
перегрева
1007.1 1006.3
09 13.11 С 3 10 км 9/4 500 м
[Cu med, cong Ac As Cs]
+29.2 +25.7 81 +43 +45 опасность
перегрева
1004.8 1004.0
12 13.11 Ю 4 8000 м гроза без осадков 10/5 500 м
[Cb cap Ac As Cs]
+26.2 +24.0 88 +36 +36 очень
душно
1007.4 1006.6 +30.7
15 13.11 ЮЗ 4 600 м гроза, ливневой дождь 10/6
[Cb cap As op]
+24.4 +24.3 99 +34 +34 очень
душно
1010.0 1009.2 4
18 13.11 ЮЗ 2 10 км в посл. час дождь {гроза} 10/5 500 м
[Cb cap Ac As Cs]
+24.5 +24.4 99 +34 +34 очень
душно
1008.0 1007.2 1
21 13.11 ЮЗ 2 6000 м 10/5 500 м
[Cb cap Ac As Cs]
+24.7 +24.6 99 +35 +35 очень
душно
1007.0 1006.2
00 14.11 штиль 0 3000 м дымка 9/3 540 м
[Sc Ac As Cs]
+25.0 +24.9 99 +35 +36 очень
душно
1008.2 1007.4 +23.7 5
03 14.11 ЮЗ 2 10 км 8/4 540 м
[Sc Ac trans Ci sp]
+29.8 +25.9 80 +45 +50 опасность
перегрева
1009.9 1009.1
06 14.11 С 6 10 км 9/5 540 м
[Sc Ac As Ci sp]
+30.7 +26.0 76 +46 +48 опасность
перегрева
1007.8 1007.0
09 14.11 СЗ 5 10 км 9/5 540 м
[Sc Ac As Ci sp]
+29.1 +25.5 81 +43 +44 опасность
перегрева
1005.3 1004.5
12 14.11 Ю 5 8000 м 10/5 500 м
[Cb cap Ac As Cs]
+25.4 +24.1 93 +35 +35 очень
душно
1008.6 1007.8 +30.8
15 14.11 З 3 8000 м {дождь} 10/5 500 м
[Sc Ac As Cs]
+24.9 +23.9 94 +34 +34 очень
душно
1010.4 1009.6 1
18 14.11 З 2 6000 м мгла {дождь} 10/5 500 м
[Sc Ac As Cs]
+25.0 +24.1 95 +34 +34 очень
душно
1008.9 1008.1 1
21 14.11 Ю 2 5000 м мгла 9/5 500 м
[Sc Ac As Cs]
+24.2 +23.5 96 +33 +33 очень
душно
1008.1 1007.2
00 15.11 штиль 0 5000 м мгла 10/5 500 м
[Sc Ac As Cs]
+24.3 +23.4 95 +33 +33 очень
душно
1009.0 1008.2 +24.0 1
03 15.11 ЮЗ 1 6000 м 10/5 540 м
[Sc Ac As Cs]
+27.4 +24.3 83 +38 +42 очень
душно
1011.8 1011.0
06 15.11 СЗ 8 7000 м слабый дождь 10/5 480 м
[Cb cap Ac As Cs]
+26.9 +24.8 88 +38 +39 очень
душно
1009.9 1009.1 0.0
09 15.11 СЗ 4 10 км {дождь} 9/4 500 м
[Sc Ac As Cs]
+28.1 +25.0 83 +40 +42 очень
душно
1006.8 1006.0 0.1
12 15.11 С 3 10 км {дождь} 9/4 540 м
[Sc Ac As Cs]
+26.2 +24.5 90 +37 +37 очень
душно
1009.5 1008.7 +28.9 0.1
15 15.11 штиль 0 8000 м зарница 9/5
[Cb cap Ac As Cs]
+26.1 +24.5 91 +37 +37 очень
душно
1011.8 1011.0
18 15.11 ЮЗ 2 4000 м мгла 9/4 540 м
[Sc Ac As Cs]
+24.7 +23.8 95 +34 +34 очень
душно
1010.1 1009.3
21 15.11 штиль 0 7000 м 9/4 540 м
[Sc Ac As Cs]
+24.6 +23.3 92 +33 +33 очень
душно
1009.0 1008.2
00 16.11 Ю 1 6000 м 9/4 540 м
[Sc Ac As Cs]
+24.4 +23.2 93 +33 +33 очень
душно
1010.4 1009.6 +24.2 0.2
03 16.11 В 4 10 км 9/3 540 м
[Sc Ac As Ci fib]
+28.8 +26.0 85 +43 +46 опасность
перегрева
1010.8 1010.0
06 16.11 СВ 7 10 км 6/3 540 м
[Cu med, cong Ac trans Ci fib]
+30.5 +24.1 69 +42 +45 опасность
перегрева
1008.4 1007.6
09 16.11 СВ 3 10 км 6/5 500 м
[Cb cap Ac As Cs]
+28.6 +24.8 80 +41 +43 опасность
перегрева
1006.7 1005.9
12 16.11 Ю 4 5000 м слабый дождь {гроза} 9/5 500 м
[Cb cap As op Cs]
+25.1 +25.0 99 +36 +36 очень
душно
1008.8 1008.0 +31.2 9
15 16.11 Ю 4 5000 м дымка {дождь} 9/5 540 м
[Sc Ac As Cs]
+25.6 +25.5 99 +37 +37 очень
душно
1011.1 1010.3 0.1
18 16.11 ЮЗ 2 5000 м дымка {дождь} 10/5 540 м
[Sc Ac As Cs]
+25.0 +24.9 99 +35 +35 очень
душно
1010.1 1009.3 4
21 16.11 штиль 0 3000 м гроза, ливневой дождь 10/5 500 м
[Cb cap Ac As Cs]
+24.9 +24.8 99 +35 +35 очень
душно
1009.4 1008.6 0.0
00 17.11 ЮЗ 2 3000 м дымка {гроза, дождь} 9/5 540 м
[Sc Ac As Cs]
+25.4 +25.3 99 +37 +37 очень
душно
1010.2 1009.4 +24.4 2
03 17.11 СВ 3 10 км 8/5 500 м
[Cu med, cong Ac trans Ci fib]
+29.2 +25.4 80 +43 +46 опасность
перегрева
1011.9 1011.1
06 17.11 С 5 10 км 8/4 480 м
[Cu med, cong Ac trans Ci fib]
+30.2 +23.9 69 +42 +45 опасность
перегрева
1009.3 1008.5
09 17.11 СВ 6 10 км 8/4 540 м
[Cu Sc Ac trans Ci fib]
+29.5 +24.2 73 +41 +42 опасность
перегрева
1006.5 1005.7
12 17.11 В 3 10 км зарница 9/5 500 м
[Cb cap Ac trans Cs]
+27.9 +25.8 88 +41 +41 опасность
перегрева
1008.4 1007.6 +30.8
15 17.11 Ю 1 8000 м 9/5
[Cb cap Ac As Cs]
+27.0 +25.3 90 +39 +39 очень
душно
1011.2 1010.4
18 17.11 З 1 8000 м 9/5 500 м
[Sc Ac As Cs]
+26.0 +24.6 92 +37 +37 очень
душно
1010.5 1009.7
21 17.11 ЮЗ 1 6000 м 8/4 500 м
[Sc Ac As Cs]
+25.3 +24.4 95 +35 +35 очень
душно
1009.8 1009.0
00 18.11 штиль 0 4000 м мгла 8/4 540 м
[Sc Ac As Cs]
+25.2 +23.9 93 +35 +35 очень
душно
1010.2 1009.4 +25.0
03 18.11 СЗ 5 10 км 8/4 540 м
[Cu med, cong Ac trans Cs]
+29.3 +25.7 81 +43 +46 опасность
перегрева
1012.9 1012.1
06 18.11 С 5 10 км 8/4 540 м
[Cu med, cong Ac trans Cs]
+30.8 +26.5 78 +47 +51 опасность
перегрева
1010.3 1009.5
09 18.11 СВ 3 8000 м в посл. час дождь 9/5 500 м
[Cb cap Ac As Cs]
+29.2 +26.9 87 +46 +47 опасность
перегрева
1007.8 1007.0 0.3
12 18.11 С 2 7000 м гроза, ливневой дождь 10/5 480 м
[Cb cap Ac As Cs]
+24.3 +24.2 99 +33 +33 очень
душно
1010.5 1009.7 +31.5 6
15 18.11 Ю 3 8000 м {гроза, дождь} 10/4 540 м
[Sc Ac As Cs]
+25.4 +25.1 98 +36 +36 очень
душно
1013.0 1012.1 0.0
18 18.11 ЮЗ 2 6000 м {гроза, дождь} 9/4 540 м
[Sc Ac As Cs]
+25.7 +25.6 99 +37 +37 очень
душно
1011.8 1011.0 0.0
21 18.11 З 2 5000 м дымка 9/4 540 м
[Sc Ac As Cs]
+25.4 +25.3 99 +37 +37 очень
душно
1010.1 1009.3
00 19.11 штиль 0 5000 м гроза без осадков {дождь} 10/5 480 м
[Cb cap As op Cs]
+25.2 +25.1 99 +36 +36 очень
душно
1012.8 1012.0 +24.3 7
03 19.11 штиль 0 3000 м слабый дождь {гроза} 10/5 500 м
[Sc As op Cs]
+25.3 +25.2 99 +36 +40 очень
душно
1014.5 1013.7 6
06 19.11 З 3 10 км в посл. час дождь {гроза} 10/5 540 м
[Sc Ac As Cs]
+27.4 +26.1 93 +41 +45 опасность
перегрева
1012.2 1011.4 1

 

Местоположение метеостанции Medan Polonia Int Airport (Индонезия): широта 3.57 долгота 98.68 высота над уровнем моря 25 м.

В архиве по умолчанию представлена погода в Medan Polonia Int Airport за последнюю неделю. Архивные данные за месяц целиком и за предыдущие месяцы, начиная с января 2011 года, Вы можете получить, выбрав интересующий диапазон дат из раскрывающегося списка и нажав кнопку "Ввод!".


*Определитесь, кто Вы:
робот инопланетянин человек

Внимание! Время в таблицах - всемирное. Для получения местного времени необходимо прибавить поправку, которая в Medan Polonia Int Airport равна 7 ч.

Смотрите также архив погоды в соседних городах и на ближайших метеорологических станциях:

Погода в Belawan (Индонезия) (26 км)
Погода в Sibolga (Индонезия) (226 км)
Погода в Sitiawan (Малайзия) (236 км)
Погода в Lhokseumawe (Индонезия) (247 км)
Погода в Gunungsitoli (Индонезия) (258 км)
Погода в Penang (Малайзия) (260 км)
Погода в Butterworth Air Base (Малайзия) (283 км)
Погода в Ipoh (Малайзия) (291 км)
Погода в Meulaboh (Индонезия) (294 км)
Погода в Cameron Highlands (Малайзия) (315 км)

Пояснения к столбцам:

Ветер - указаны скорость ветра в м/с - средняя за 10 мин, порывы в срок и между сроками (в фигурных скобках) и направление, откуда дует ветер: С - северный, СВ - северо-восточный, В - восточный, ЮВ - юго-восточный, Ю - южный, ЮЗ - юго-западный, З - западный, СЗ - северо-западный.
Видимость - горизонтальная дальность видимости в метрах или километрах. При видимости от 1 до 10 км при отсутствии осадков обычно наблюдается дымка, при ухудшении видимости до 1 км и менее - туман. В сухую погоду видимость может ухудшаться дымом, пылью или мглою.
Явления - указаны атмосферные явления, наблюдавшиеся в срок или в последний час перед сроком; фигурными скобками обозначены явления, наблюдавшиеся между сроками (за 1-3 часа до срока); квадратными скобками обозначены град или гололедные отложения с указанием их диаметра в мм.
Облачность - указаны через наклонную черту общая и нижняя облачность в баллах и высота нижней границы облаков в метрах; квадратными скобками обозначены формы облаков: Ci - перистые, Cs - перисто-слоистые, Cc - перисто-кучевые, Ac - высококучевые, As - высокослоистые, Sc - слоисто-кучевые, Ns - слоисто-дождевые, Cu - кучевые, Cb - кучево-дождевые. Подробнее классификацию облаков см. в Атласе облаков (PDF).
T - Температура воздуха - температура, измеренная на высоте 2 м над землей.
Td - Температура точки росы - температура, при понижении до которой содержащийся в воздухе водяной пар достигнет насыщения.
f - Относительная влажность воздуха - влажноcть воздуха, измеренная на высоте 2 м над землей.
Te - Эффективная температура - температура, которую ощущает одетый по сезону человек в тени. Характеристика душности погоды. При расчете учитывается влияние влажности воздуха и скорости ветра на теплоощущения человека.
Tes - Эффективная температура на солнце - температура, которую ощущает человек, с поправкой на солнечный нагрев. Характеристика знойности погоды. Зависит от высоты солнца над горизонтом, облачности и скорости ветра. Ночью, в пасмурную погоду, а также при ветре 12 м/с и более поправка равна нулю.
P - Атмосферное давление - приведенное к уровню моря атмосферное давление.
Po - Атмосферное давление - измеренное на уровне метеостанции атмосферное давление.
Tmin - Минимальная температура - минимум температуры воздуха на высоте 2 м над землей.
Tmax - Максимальная температура - максимум температуры воздуха на высоте 2 м над землей.
R - Количество осадков - Количество выпавших осадков за период времени, мм. При наведении курсора мыши на число - период времени, за который выпало указанное количество осадков.
R24 - Количество осадков - Количество выпавших осадков за 24 часа, мм.
S - Снежный покров - Высота снежного покрова, см. При наведении курсора мыши на число - состояние снежного покрова и степень покрытия местности в баллах.